Showing default

OPS 4682 (SNAPSHOT), 1314

Orbit data source: Space-Track

OPS 4682 (SNAPSHOT), 1314 is an American payload satellite in LEO that was launched on Sat, 03 Apr 1965 UTC via an ATLAS SLV-3 AGENA D launch vehicle from the Air Force Western Test Range (AFWTR). Payload-class satellites include a variety of spacecraft equipped with specific instruments for various scientific and technological missions. These include communications satellites like Starlink; space stations such as the ISS; scientific satellites like the Hubble; Earth observation satellites from companies like Planet Labs, Umbra, and HawkEye 360; GPS; miniature CubeSats for education and research; and military/defense satellites.

Loading next visibility...
Identifier
1314, 1965-027A
Orbit
LEO
Country
Flag of USUS
Related business
Manufacturer
RCA/East Windsor
Mission
Spacecraft
Bus & Motor
SNAP 10 REACTOR, Unknown motor
Mass
2,386 kg wet, 422 kg dry
Launch date (UTC)
1965-04-03 (61 years ago)
Launch vehicle
ATLAS SLV-3 AGENA D
Launch site
Air Force Western Test Range (AFWTR)
Object type
Payload
Rocket body
Debris
Shape & HBR
CONE + CYL, 2.3 m
Radar Cross Section
Large (>1 m²)

Expand to show TLE details & history
Last TLE update: 12 hours ago

TLE from 12 hours ago
0 OPS 4682 (SNAPSHOT)
1 01314U 65027A   26235.61731355  .00000008  00000-0  13702-5 0  9994
2 01314  90.2454   7.7136 0031915 114.0451 257.4400 12.91806234639730
Epoch: 2026-08-23T14:48Z
TLE epoch observation values (Epoch: 2026-08-23T14:48:55.890Z)
Latitude
11.08079°
Longitude
173.52211°
Altitude
1,301.881 km
Speed
7.204 km/s
True Right ascension
00h 30m 39s
True Declination
11° 01' 14"
Sunlit
Object was in full shadow at epoch
Visualization orbit readout
Latitude
Unknown
Longitude
Unknown
Altitude
Unknown
Speed
Unknown
Apparent Right ascension
Unknown
Apparent Declination
Unknown
Sunlit
N/A
Visualization observer readout
Local Sidereal Time
17:51:06
Azimuth
Unknown
Elevation
Unknown
Doppler factor
Unknown
Orbital elements
Apogee altitude
1,315.977 km
Perigee altitude
1,267.021 km
Semi-major axis
7,669.636 km
Eccentricity
0.00319
Inclination
90.2454°
RAAN
7.7136°
Arg. of periapsis
114.0451°
True anomaly
257.08334°
Mean anomaly
257.44°
Eccentric anomaly
257.26164°
Mean motion
3.23133 °/min
Orbital period
111.41 mins
BSTAR
0.0000013702
Loading maneuver chart data...
Computing Atmospheric mass density...
Loading historical data...
Loading historical data...
Loading historical data...
Loading historical data...
Loading historical data...
Loading historical data...
Loading historical data...

Documentation

Showing up to 5 results
|